Location: *
(43.7000°S, 168.7000°W)
Time: 14:18:10
(UTC+00:00)

Cosmos 468 Rocket - Pass Details

Date: 07 July 2020
Orbit: 743 x 780 km, 74.0° (Epoch: 04 August)

Event Time Altitude Azimuth Distance (km) Brightness Sun altitude
Rises 17:28:59 0° 342° (NNW) 3,251 7.3 -13.7°
Reaches altitude 10° 17:31:21 10° 342° (NNW) 2,328 6.5 -13.3°
Maximum altitude 17:36:40 88° 73° (ENE) 786 4.1 -12.4°
Drops below altitude 10° 17:41:59 10° 159° (SSE) 2,335 6.5 -11.5°
Sets 17:44:22 0° 159° (SSE) 3,262 7.3 -11.1°
